Timisoara, Romania

10:06 AM EET on February 10, 2016 (GMT +0200)
Giarmata

Weather History for LRTR - September, 2013

Change the Weather History Date:

Sunday, September 15, 2013

  Actual Average Record
Temperature  
Mean Temperature 62 °F -  
Max Temperature 73 °F 70 °F 86 °F (2004)
Min Temperature 51 °F 48 °F 39 °F (1998)
Degree Days  
Heating Degree Days 3    
Growing Degree Days 12 (Base 50)    
Moisture  
Dew Point 54 °F    
Average Humidity 81    
Maximum Humidity 100    
Minimum Humidity 50    
Precipitation  
Precipitation 0.00 in 0.05 in - ()
Sea Level Pressure  
Sea Level Pressure 29.93 in    
Wind  
Wind Speed 4 mph ()    
Max Wind Speed 10 mph    
Max Gust Speed 21 mph    
Visibility 5.2 miles    
Events Fog    
Averages and records for this station are not official NWS values.
T = Trace of Precipitation, MM = Missing Value Source: Averaged Metar Reports

Daily Weather History Graph

Daily Weather History Graph

Search for Another Location

Airport or City:

Trip Planner

Search our weather history database for the weather conditions in past years. The results will help you decide how hot, cold, wet, or windy it might be!

Date:

Astronomy

Sep. 15, 2013 Rise Set
Actual Time 7:13 AM EEST 7:46 PM EEST
Civil Twilight 6:43 AM EEST 8:16 PM EEST
Nautical Twilight 6:07 AM EEST 8:51 PM EEST
Astronomical Twilight 5:30 AM EEST 9:28 PM EEST
Moon 5:09 PM EEST (9/15) 2:19 AM EEST (9/15)
Length of Visible Light 13h 32m
Length of Day
12h 33m
Waxing Gibbous, 79% of the Moon is Illuminated
Sep 15
Waxing Gibbous
Sep 19
Full
Sep 27
Last Quarter
Oct 5
New
Oct 12
First Quarter

Hourly Weather History & Observations

Time (EEST) Temp. Dew Point Humidity Pressure Visibility Wind Dir Wind Speed Gust Speed Precip Events Conditions
12:00 AM 57.2 °F 55.4 °F 94% 29.95 in 6.2 mi WSW 10.4 mph - N/A   Overcast
12:30 AM 57.2 °F 55.4 °F 94% 29.95 in 6.2 mi West 6.9 mph - N/A   Overcast
1:00 AM 57.2 °F 55.4 °F 94% 29.95 in 6.2 mi WSW 6.9 mph - N/A   Overcast
1:30 AM 57.2 °F 55.4 °F 94% 29.95 in 6.2 mi WSW 4.6 mph - N/A   Mostly Cloudy
2:00 AM 57.2 °F 55.4 °F 94% 29.95 in 6.2 mi WSW 5.8 mph - N/A   Mostly Cloudy
2:30 AM 55.4 °F 53.6 °F 94% 29.95 in 6.2 mi WSW 3.5 mph - N/A   Scattered Clouds
3:00 AM 53.6 °F 53.6 °F 100% 29.95 in 6.2 mi WSW 5.8 mph - N/A   Partly Cloudy
3:30 AM 53.6 °F 51.8 °F 94% 29.95 in 6.2 mi WSW 4.6 mph - N/A   Partly Cloudy
4:00 AM 53.6 °F 51.8 °F 94% 29.95 in - West 2.3 mph - N/A   Clear
4:30 AM 51.8 °F 51.8 °F 100% 29.95 in - Variable 2.3 mph - N/A   Clear
5:00 AM 51.8 °F 50.0 °F 94% 29.95 in 5.0 mi Calm Calm - N/A Fog Fog
5:30 AM 51.8 °F 50.0 °F 94% 29.95 in 1.6 mi SW 1.2 mph - N/A Fog Shallow Fog
6:00 AM 51.8 °F 50.0 °F 94% 29.95 in 0.9 mi Calm Calm - N/A Fog Patches of Fog
6:30 AM 51.8 °F 50.0 °F 94% 29.95 in 0.9 mi Variable 3.5 mph - N/A Fog Patches of Fog
7:00 AM 51.8 °F 51.8 °F 100% 29.95 in 0.9 mi ESE 1.2 mph - N/A   Overcast
7:30 AM 53.6 °F 51.8 °F 94% 29.95 in 1.9 mi Calm Calm - N/A   Mostly Cloudy
8:00 AM 53.6 °F 51.8 °F 94% 29.95 in 2.2 mi Variable 2.3 mph - N/A   Mostly Cloudy
8:30 AM 55.4 °F 53.6 °F 94% 29.95 in 3.1 mi Calm Calm - N/A   Mostly Cloudy
9:00 AM 55.4 °F 53.6 °F 94% 29.98 in 5.0 mi SSW 3.5 mph - N/A   Mostly Cloudy
9:30 AM 57.2 °F 55.4 °F 94% 29.98 in 6.2 mi Variable 1.2 mph - N/A   Scattered Clouds
10:00 AM 59.0 °F 57.2 °F 94% 29.98 in 6.2 mi Variable 2.3 mph - N/A   Scattered Clouds
10:30 AM 60.8 °F 57.2 °F 88% 29.98 in 6.2 mi Variable 4.6 mph - N/A   Partly Cloudy
11:00 AM 60.8 °F 57.2 °F 88% 29.98 in 6.2 mi SE 6.9 mph - N/A   Scattered Clouds
11:30 AM 62.6 °F 57.2 °F 82% 29.98 in 6.2 mi SSE 5.8 mph - N/A   Scattered Clouds
12:00 PM 64.4 °F 57.2 °F 77% 29.98 in 6.2 mi SSE 5.8 mph - N/A   Scattered Clouds
12:30 PM 66.2 °F 57.2 °F 73% 29.98 in 6.2 mi SSE 5.8 mph - N/A   Scattered Clouds
1:00 PM 68.0 °F 55.4 °F 64% 29.95 in 6.2 mi South 5.8 mph - N/A   Scattered Clouds
1:30 PM 68.0 °F 55.4 °F 64% 29.95 in 6.2 mi Variable 3.5 mph - N/A   Scattered Clouds
2:00 PM 69.8 °F 55.4 °F 60% 29.95 in 6.2 mi Variable 4.6 mph - N/A   Scattered Clouds
2:30 PM 71.6 °F 57.2 °F 60% 29.92 in 6.2 mi Variable 4.6 mph - N/A   Scattered Clouds
3:00 PM 71.6 °F 53.6 °F 53% 29.92 in 6.2 mi Variable 4.6 mph - N/A   Scattered Clouds
3:30 PM 73.4 °F 55.4 °F 53% 29.92 in 6.2 mi SW 3.5 mph - N/A   Partly Cloudy
4:00 PM 73.4 °F 53.6 °F 50% 29.89 in 6.2 mi SSW 8.1 mph 20.7 mph N/A   Scattered Clouds
4:30 PM 71.6 °F 55.4 °F 57% 29.89 in 6.2 mi SW 4.6 mph - N/A   Scattered Clouds
5:00 PM 73.4 °F 53.6 °F 50% 29.89 in 6.2 mi SW 4.6 mph - N/A   Partly Cloudy
5:30 PM 73.4 °F 53.6 °F 50% 29.89 in - SSW 3.5 mph - N/A   Clear
6:00 PM 71.6 °F 53.6 °F 53% 29.86 in - South 3.5 mph - N/A   Clear
6:30 PM 71.6 °F 53.6 °F 53% 29.86 in - Variable 2.3 mph - N/A   Clear
7:00 PM 71.6 °F 55.4 °F 57% 29.86 in - SE 4.6 mph - N/A   Clear
7:30 PM 68.0 °F 55.4 °F 64% 29.86 in - SSE 5.8 mph - N/A   Clear
8:00 PM 66.2 °F 55.4 °F 68% 29.86 in - SE 6.9 mph - N/A   Clear
8:30 PM 64.4 °F 57.2 °F 77% 29.86 in - SE 6.9 mph - N/A   Clear
9:00 PM 60.8 °F 57.2 °F 88% 29.86 in - SE 4.6 mph - N/A   Clear
9:30 PM 59.0 °F 57.2 °F 94% 29.86 in - ESE 4.6 mph - N/A   Clear
10:00 PM 57.2 °F 55.4 °F 94% 29.86 in - East 4.6 mph - N/A   Clear
10:30 PM 57.2 °F 55.4 °F 94% 29.86 in - East 5.8 mph - N/A   Clear
11:00 PM 57.2 °F 55.4 °F 94% 29.86 in - East 5.8 mph - N/A   Clear
11:30 PM 57.2 °F 55.4 °F 94% 29.86 in - East 4.6 mph - N/A   Clear